Retour au catalogue

DELTA 1 DEB

ActifSSO
NORAD 21465·DEBRIS·🇺🇸 United States

Lancé Jun 12, 1975 depuis Vandenberg Space Force Base

Loading…

Prochains Passages (prochaines 24 heures)

TLE

FraisSource: Space-Track

Époque: Sep 14, 2026, 14:14 UTC

1 21465U 75052EZ  26257.59339882  .00000140  00000-0  28883-3 0  9993
2 21465  99.6099 119.4831 0067246 222.6823 166.0891 13.48888354737144

Suivez DELTA 1 DEB en temps réel avec AllMySat

Download on the App Store